Tracking 19638 objects as of 20-May-2019
HD Live streaming from Space Station
objects crossing your sky now

METEOR 2-11

Track METEOR 2-11 now!
10-day predictions
METEOR 2-11 is classified as:


NORAD ID: 15099
Int'l Code: 1984-072A
Perigee: 943.0 km
Apogee: 963.3 km
Inclination: 82.5 °
Period: 104.0 minutes
Semi major axis: 7324 km
RCS: 4.8453 m2 (large)
Launch date: July 5, 1984
Source: Commonwealth of Independent States (former USSR) (CIS)
Launch site: PLESETSK MISSILE AND SPACE COMPLEX (PKMTR)
aabbcc
Your satellite tracking list
Your tracking list is empty




NASA's NSSDC Master Catalog

Two Line Element Set (TLE):
1 15099U 84072A   19139.88190187  .00000015  00000-0  30131-6 0  9990
2 15099  82.5283 300.5182 0013842 150.2371 209.9580 13.85051142762435
Source of the keplerian elements: AFSPC